Location: Unspecified
(0.0000°N, 0.0000°E)
Time: 01:37:00
(UTC+00:00)

GALILEO-FM3 - Visible Passes

Search period start: 22 August 2018 00:00
Search period end: 01 September 2018 00:00
Orbit: 23209 x 23235 km, 54.9° (Epoch: 20 August)

Date Brightness Start Highest point End Pass type
(mag) Time Alt. Az. Time Alt. Az. Time Alt. Az.
23 Aug ? 09:21:35 10° SSW 13:38:25 85° E 17:28:10 10° NNE visible
24 Aug ? 16:06:05 10° SW 17:43:08 18° W 04:16:05 10° SSE visible
26 Aug ? 02:41:56 10° NW 04:56:22 30° W 15:08:31 10° NNE visible
27 Aug ? 13:29:39 10° SW 16:08:54 42° W 02:01:00 10° SSE visible
29 Aug ? 00:21:42 10° NNW 03:21:26 55° W 12:50:32 10° NE visible
30 Aug ? 11:14:24 10° SSW 14:33:36 68° W 23:31:34 10° SE visible
